Location: Caltech
(34.1382°N, 118.1253°W)
Time: 14:27:23
(UTC-07:00)

SL-08 R/B - Visible Passes

Search period start: 29 April 2017 00:00
Search period end: 09 May 2017 00:00
Orbit: 675 x 739 km, 98.2° (Epoch: 28 April)

Date Brightness Start Highest point End Pass type
(mag) Time Alt. Az. Time Alt. Az. Time Alt. Az.
29 Apr 5.4 02:26:22 24° NNE 02:26:22 24° NNE 02:28:26 10° N visible
30 Apr 6.3 01:32:03 11° NE 01:32:03 11° NE 01:32:23 10° NE visible
30 Apr 5.1 03:11:01 23° NNW 03:11:01 23° NNW 03:12:53 10° NNW visible
01 May 5.5 02:16:43 23° NNE 02:16:43 23° NNE 02:19:00 10° N visible
01 May 5.6 03:55:42 12° NW 03:55:42 12° NW 03:56:09 10° NW visible
02 May 4.9 03:01:23 28° NNW 03:01:23 28° NNW 03:03:39 10° NNW visible
03 May 5.6 02:07:05 22° NE 02:07:05 22° NE 02:09:29 10° NNE visible
03 May 5.4 03:46:04 16° NW 03:46:04 16° NW 03:47:14 10° NW visible
04 May 4.8 02:51:45 33° N 02:51:45 33° N 02:54:23 10° N visible
05 May 5.7 01:57:28 20° NE 01:57:28 20° NE 01:59:55 10° NNE visible
05 May 5.1 03:36:27 20° NW 03:36:27 20° NW 03:38:14 10° NNW visible
06 May 4.7 02:42:09 36° N 02:42:09 36° N 02:45:05 10° N visible
07 May 5.8 01:47:51 17° NE 01:47:51 17° NE 01:50:14 10° NNE visible
07 May 4.8 03:26:50 26° NW 03:26:50 26° NW 03:29:09 10° NNW visible
08 May 4.7 02:32:32 36° NNE 02:32:32 36° NNE 02:35:44 10° N visible
08 May 5.6 04:11:31 10° WNW 04:11:31 10° WNW 04:11:36 10° WNW visible
